Regional Weather Roundup
Issued by NWS Green Bay, WI

Home | Current Version | Previous Version | Graphics & Text | Print | Product List | Glossary Off
Versions: 1 2 3 4 5 6 7 8 9 10 11 12 13 14 15 16 17 18 19 20 21 22 23 24 25 26 27 28 29 30 31 32 33 34 35 36 37 38 39 40 41 42 43 44 45 46 47 48 49 50

469
ASUS43 KGRB 250600
RWRGRB

NORTH-CENTRAL AND NORTHEAST WISCONSIN REGIONAL WEATHER ROUNDUP
NATIONAL WEATHER SERVICE GREEN BAY WI
100 AM CDT SUN SEP 25 2016

WIZ005-009-010>012-018-019-250700-
NORTH CENTRAL WISCONSIN

CITY           SKY/WX    TMP DP  RH WIND       PRES   REMARKS
IRONWOOD       CLOUDY    60  54  80 VRB3      30.07F
MANITOWISH WTR NOT AVBL
ARBOR VITAE    NOT AVBL
EAGLE RIVER    NOT AVBL
LAND O LAKES   NOT AVBL
RHINELANDER    CLOUDY    57  54  89 SE6       30.14F
PHILLIPS       NOT AVBL
ANTIGO         NOT AVBL
TOMAHAWK       NOT AVBL
MERRILL        NOT AVBL
$$

WIZ013-073-250700-
NORTHEAST WISCONSIN

CITY           SKY/WX    TMP DP  RH WIND       PRES   REMARKS
IRON MOUNTAIN  CLOUDY    54  49  83 CALM      30.15F
MARINETTE      MOCLDY    56  54  93 CALM      30.16F
$$

WIZ017-030-035>037-045-250700-
CENTRAL WISCONSIN

CITY           SKY/WX    TMP DP  RH WIND       PRES   REMARKS
MEDFORD        NOT AVBL
WAUSAU         MOCLDY    58  54  86 SE8       30.12F
MOSINEE        NOT AVBL
MARSHFIELD     CLOUDY    60  56  86 SE10      30.11F
WISC RAPIDS    CLEAR     59  57  93 SE5       30.14F
STEVENS POINT  NOT AVBL
WAUPACA        NOT AVBL
SHAWANO        NOT AVBL
CLINTONVILLE   NOT AVBL
WAUTOMA        PTCLDY    57  56  96 CALM      30.14F
$$

WIZ038-039-048-051-250700-
FOX VALLEY

CITY           SKY/WX    TMP DP  RH WIND       PRES   REMARKS
NWS GREEN BAY  CLEAR     58  57  97 CALM      30.16S
APPLETON       NOT AVBL
OSHKOSH        PTCLDY    61  56  83 SE5       30.14S
FOND DU LAC    CLEAR     61  57  87 S5        30.14F
$$

WIZ022-050-052-250700-
EAST CENTRAL WISCONSIN

CITY           SKY/WX    TMP DP  RH WIND       PRES   REMARKS
EPHRAIM        NOT AVBL
WASHINGTON ISL NOT AVBL
STURGEON BAY   CLEAR     56  53  90 SE5       30.16F
MANITOWOC      NOT AVBL
SHEBOYGAN      CLOUDY    64  57  78 SE5       30.15F
$$

LMZ563-521-522-541>543-250700-
LAKESHORE

STATION/POSITION TIME  TEMP    WIND        PRES    VSBY  WAVE
                       AIR SEA DIR/SP/G                  HT/PER
                 (UTC) (F)     (DEG/KT/KT) (MB)    (MI)  (FT/S)
SHEBOYGAN LKSHOR 0500   66     130/ 11/ 12 1020.8F
KEWAUNEE LKSHORE 0500   65     120/  6/  7 1021.0F
NORTHPORT PIER   0500   66     130/ 13/ 15 1021.3
N MID LAKE BUOY  0450   65 67  150/ 14/ 16 1021.6F         2/ 4
S GREEN BAY BUOY 0500   63 66   90/  6/  6 1021.0F
CHAMBERS ISLAND  0500   62     100/  3/  4 1021.0F
MENOMINEE LKSHOR 0500   64      90/  5/  6 1020.7F
$$




USA.gov is the U.S. government's official web portal to all federal, state and local government web resources and services.